TimeIST,TemperatureF,Dew PointF,Humidity,Sea Level PressureIn,VisibilityMPH,Wind Direction,Wind SpeedMPH,Gust SpeedMPH,PrecipitationIn,Events,Conditions,WindDirDegrees,DateUTC
12:00 AM,48.2,39.2,71,30.04,1.2,East,4.6,-,N/A,,Smoke,90,2013-01-03 18:30:00
1:00 AM,50.0,41.0,71,30.04,1.2,East,4.6,-,N/A,,Smoke,80,2013-01-03 19:30:00
2:00 AM,46.4,39.2,76,30.04,1.2,East,4.6,-,N/A,,Smoke,100,2013-01-03 20:30:00
2:30 AM,45,40,75,30.06,1,East,4.6,,,,Smoke,90,2013-01-03 21:00:00
3:00 AM,44.6,39.2,81,30.04,1.2,ESE,3.5,-,N/A,,Smoke,110,2013-01-03 21:30:00
4:00 AM,42.8,37.4,81,30.04,1.2,ESE,3.5,-,N/A,,Smoke,110,2013-01-03 22:30:00
5:00 AM,42.8,37.4,81,30.04,1.2,Variable,2.3,-,N/A,,Smoke,0,2013-01-03 23:30:00
5:30 AM,41.0,37.4,87,30.04,1.1,East,3.5,-,N/A,,Mist,100,2013-01-04 00:00:00
7:00 AM,41.0,37.4,87,30.04,0.9,Variable,2.3,-,N/A,,Mist,0,2013-01-04 01:30:00
8:30 AM,46,42,79,30.08,1,Calm,Calm,,,Fog,Light Fog,,2013-01-04 03:00:00
9:00 AM,50.0,41.0,71,30.09,0.7,Variable,2.3,-,N/A,,Scattered Clouds,0,2013-01-04 03:30:00
9:30 AM,51.8,42.8,71,30.09,0.7,SE,3.5,-,N/A,,Mist,130,2013-01-04 04:00:00
10:00 AM,53.6,42.8,67,30.09,0.9,SSE,4.6,-,N/A,,Scattered Clouds,150,2013-01-04 04:30:00
11:00 AM,57.2,41.0,55,30.09,1.0,Variable,3.5,-,N/A,,Scattered Clouds,0,2013-01-04 05:30:00
11:30 AM,61,39,33,30.06,1,SW,4.6,,,,Haze,230,2013-01-04 06:00:00
11:30 AM,59.0,41.0,51,30.09,1.6,SSW,4.6,-,N/A,,Haze,200,2013-01-04 06:00:00
1:00 PM,62.6,39.2,42,30.04,1.9,Variable,5.8,-,N/A,,Haze,0,2013-01-04 07:30:00
2:00 PM,64.4,37.4,37,30.01,1.9,WSW,4.6,-,N/A,,Haze,240,2013-01-04 08:30:00
2:30 PM,67,52,48,29.97,2,West,2.3,,,,Haze,270,2013-01-04 09:00:00
3:00 PM,64.4,35.6,34,29.98,2.5,Variable,2.3,-,N/A,,Haze,0,2013-01-04 09:30:00
4:00 PM,66.2,33.8,30,29.98,2.5,Variable,2.3,-,N/A,,Haze,0,2013-01-04 10:30:00
5:00 PM,64.4,33.8,32,29.98,2.5,Variable,2.3,-,N/A,,Haze,0,2013-01-04 11:30:00
5:30 PM,64,37,25,29.95,2,WNW,2.3,,,,Haze,290,2013-01-04 12:00:00
7:00 PM,55.4,35.6,47,29.98,1.1,Calm,Calm,-,N/A,,Smoke,0,2013-01-04 13:30:00
8:00 PM,53.6,39.2,58,30.01,0.5,Variable,2.3,-,N/A,,Smoke,0,2013-01-04 14:30:00
8:30 PM,51,41,59,30.00,0,NNE,2.3,,,,Smoke,20,2013-01-04 15:00:00
9:00 PM,51.8,37.4,58,30.01,0.5,Calm,Calm,-,N/A,,Smoke,0,2013-01-04 15:30:00
10:00 PM,50.0,35.6,58,30.01,0.6,Variable,2.3,-,N/A,,Smoke,0,2013-01-04 16:30:00
11:00 PM,48.2,37.4,66,30.01,0.9,East,4.6,-,N/A,,Smoke,90,2013-01-04 17:30:00